| time (UTC) | temp C | wind direction | speed KPH | gust KPH | rain 1hr cm | rain 24hr cm | rain mn cm | humidity % | barometer mb |
| 20260504201526 | 23 | 204 | 4.8 | 17.7 | 0.00 | 0.00 | 0.00 | 53 | 1010.4 |
| 20260504200018 | 23 | 241 | 8.0 | 24.1 | 0.00 | 0.00 | 0.00 | 53 | 1010.7 |
| 20260504194521 | 22 | 275 | 8.0 | 29.0 | 0.00 | 0.00 | 0.00 | 52 | 1010.9 |
| 20260504193026 | 22 | 262 | 8.0 | 20.9 | 0.00 | 0.00 | 0.00 | 54 | 1011.1 |
| 20260504191524 | 21 | 235 | 6.4 | 24.1 | 0.00 | 0.00 | 0.00 | 55 | 1011.4 |
| 20260504190030 | 21 | 215 | 9.7 | 32.2 | 0.00 | 0.00 | 0.00 | 55 | 1011.5 |
| 20260504184518 | 20 | 257 | 8.0 | 25.7 | 0.00 | 0.00 | 0.00 | 58 | 1011.9 |
| 20260504183027 | 19 | 195 | 3.2 | 19.3 | 0.00 | 0.00 | 0.00 | 60 | 1012.5 |
| 20260504181523 | 20 | 257 | 11.3 | 32.2 | 0.00 | 0.00 | 0.00 | 53 | 1013.1 |
| 20260504180028 | 21 | 188 | 8.0 | 24.1 | 0.00 | 0.00 | 0.00 | 52 | 1012.3 |
| 20260504174514 | 21 | 175 | 9.7 | 29.0 | 0.00 | 0.00 | 0.00 | 51 | 1011.8 |
| 20260504173020 | 21 | 235 | 3.2 | 20.9 | 0.00 | 0.00 | 0.00 | 53 | 1011.7 |
| 20260504171537 | 20 | 246 | 4.8 | 17.7 | 0.00 | 0.00 | 0.00 | 56 | 1011.9 |
| 20260504081529 | 6 | 70 | 0.0 | 0.0 | 0.00 | 0.00 | 0.00 | 90 | 1014.7 |
| 20260504050012 | 9 | 106 | 0.0 | 0.0 | 0.00 | 0.00 | 0.00 | 82 | 1015.7 |
| 20260504044521 | 9 | 229 | 0.0 | 0.0 | 0.00 | 0.00 | 0.00 | 80 | 1016.3 |
| 20260504043012 | 10 | 229 | 0.0 | 0.0 | 0.00 | 0.00 | 0.00 | 79 | 1016.2 |
| 20260504041512 | 10 | 229 | 0.0 | 0.0 | 0.00 | 0.00 | 0.00 | 79 | 1016.4 |
| 20260504040022 | 10 | 269 | 0.0 | 0.0 | 0.00 | 0.00 | 0.00 | 77 | 1016.4 |
| 20260504034516 | 10 | 200 | 0.0 | 0.0 | 0.00 | 0.00 | 0.00 | 74 | 1016.6 |
| 20260504033013 | 10 | 200 | 0.0 | 0.0 | 0.00 | 0.00 | 0.00 | 73 | 1016.1 |
| 20260504031514 | 10 | 224 | 0.0 | 3.2 | 0.00 | 0.00 | 0.00 | 68 | 1016.2 |
| 20260504030023 | 10 | 96 | 0.0 | 0.0 | 0.00 | 0.00 | 0.00 | 68 | 1016.4 |
| 20260504024518 | 11 | 96 | 0.0 | 3.2 | 0.00 | 0.00 | 0.00 | 68 | 1016.4 |
| 20260504023018 | 11 | 75 | 0.0 | 0.0 | 0.00 | 0.00 | 0.00 | 65 | 1016.3 |
| 20260504021519 | 11 | 22 | 0.0 | 0.0 | 0.00 | 0.00 | 0.00 | 63 | 1016.0 |
| 20260504020017 | 11 | 22 | 0.0 | 0.0 | 0.00 | 0.00 | 0.00 | 63 | 1015.9 |
| 20260504014515 | 11 | 22 | 0.0 | 3.2 | 0.00 | 0.00 | 0.00 | 60 | 1015.5 |
| 20260504013018 | 12 | 77 | 0.0 | 3.2 | 0.00 | 0.00 | 0.00 | 58 | 1015.2 |
| 20260504011520 | 12 | 77 | 0.0 | 1.6 | 0.00 | 0.00 | 0.00 | 57 | 1015.5 |
| 20260504010022 | 12 | 319 | 0.0 | 3.2 | 0.00 | 0.00 | 0.00 | 55 | 1015.5 |
| 20260504004520 | 13 | 319 | 0.0 | 1.6 | 0.00 | 0.00 | 0.00 | 54 | 1015.6 |
| 20260504003021 | 14 | 319 | 0.0 | 1.6 | 0.00 | 0.00 | 0.00 | 49 | 1015.6 |
| 20260504001522 | 15 | 319 | 0.0 | 1.6 | 0.00 | 0.00 | 0.00 | 50 | 1015.5 |
| 20260504000022 | 15 | 319 | 0.0 | 1.6 | 0.00 | 0.00 | 0.00 | 46 | 1015.5 |
| 20260503234535 | 16 | 309 | 3.2 | 4.8 | 0.00 | 0.00 | 0.00 | 40 | 1015.6 |
| 20260503233018 | 16 | 248 | 4.8 | 11.3 | 0.00 | 0.00 | 0.00 | 36 | 1015.8 |
| 20260503231521 | 17 | 215 | 1.6 | 12.9 | 0.00 | 0.00 | 0.00 | 31 | 1015.8 |
| 20260503230023 | 17 | 258 | 4.8 | 9.7 | 0.00 | 0.00 | 0.00 | 31 | 1015.8 |
| 20260503224524 | 17 | 252 | 8.0 | 14.5 | 0.00 | 0.00 | 0.00 | 29 | 1016.3 |
| 20260503223024 | 17 | 279 | 4.8 | 14.5 | 0.00 | 0.00 | 0.00 | 31 | 1016.3 |
| 20260503221523 | 17 | 266 | 8.0 | 14.5 | 0.00 | 0.00 | 0.00 | 30 | 1016.4 |
| 20260503220039 | 17 | 298 | 4.8 | 22.5 | 0.00 | 0.00 | 0.00 | 29 | 1016.4 |
| 20260503214509 | 18 | 217 | 3.2 | 24.1 | 0.00 | 0.00 | 0.00 | 30 | 1016.3 |
| 20260503213013 | 17 | 210 | 3.2 | 27.4 | 0.00 | 0.00 | 0.00 | 30 | 1016.3 |
| 20260503211516 | 17 | 229 | 6.4 | 20.9 | 0.00 | 0.00 | 0.00 | 30 | 1016.4 |
| 20260503210022 | 18 | 287 | 4.8 | 12.9 | 0.00 | 0.00 | 0.00 | 30 | 1016.7 |
| 20260503204505 | 17 | 266 | 6.4 | 14.5 | 0.00 | 0.00 | 0.00 | 30 | 1016.9 |
| 20260503203020 | 17 | 282 | 9.7 | 22.5 | 0.00 | 0.00 | 0.00 | 30 | 1017.2 |